www.pogodaiklimat.ru
ПОГОДА в Кэмп-Дэвиде
Время
и дата
09:33 03.12
09:49 03.12
09:54 03.12
10:54 03.12
11:54 03.12
12:32 03.12
12:43 03.12
12:54 03.12
13:01 03.12
13:54 03.12
14:54 03.12
15:01 03.12
15:54 03.12
16:54 03.12
17:54 03.12
18:54 03.12
19:54 03.12
21:54 03.12
22:54 03.12
23:54 03.12
00:54 04.12
01:54 04.12
02:54 04.12
03:54 04.12
04:54 04.12
05:54 04.12
06:54 04.12
07:54 04.12
08:54 04.12
09:54 04.12
11:54 04.12
12:54 04.12
13:54 04.12
14:54 04.12
15:54 04.12
16:54 04.12
17:54 04.12
18:54 04.12
19:54 04.12
20:54 04.12
21:54 04.12
22:54 04.12
23:54 04.12
00:54 05.12
02:54 05.12
03:54 05.12
04:54 05.12
05:54 05.12
Ветер
(напр.,м/с)
Видим. Явления Облачность Т
(С)
Тd
(С)
f
(%)
Тe
(С)
Тes
(С)
Комфортность P
(гПа)
Po
(гПа)
Тmin
(С)
Tmax
(С)
R
(мм)
R24
(мм)
S
(см)
Ю 7
{13}
400 м туман 10/10 60 м +7.0 +7.0 100 +2 +2 952.6
ЮЗ 5
{14}
4 км дымка 10/10 60 м +8.0 +7.0 93 +4 +4 952.6
ЮЗ 8
{16}
8 км дымка 10/10 60 м +7.8 +7.2 96 +3 +3 1019.2 952.6 2.8
ЮЗ 6
{12}
13 км 10/10 60 м +8.3 +7.8 97 +4 +4 1018.6 951.9
ЮЗ 7
{11}
13 км 10/10 90 м +8.9 +8.3 96 +5 +5 1017.8 951.3
ЮЗ 4
{12}
3 км дымка 10/10 60 м +9.4 +8.9 97 +6 +6 951.0
ЮЗ 6
{11}
1 км дымка 10/10 60 м +9.4 +8.9 97 +6 +6 950.7
ЮЗ 4
{10}
4 км дымка 10/10 60 м +9.4 +8.9 97 +6 +6 1016.9 950.4 +6.1 +9.4 2.8
ЮЗ 4
{9}
14 км 10/10 60 м +10.0 +9.4 96 +7 +7 950.4
ЮЗ 4
{10}
14 км 10/10 60 м +10.6 +10.0 96 +8 +8 1016.4 950.0
нст 3
{8}
16 км 8/8 90 м +11.1 +10.0 93 +9 +10 1016.9 950.7
З 4 16 км 5/5 90 м +12.0 +10.0 88 +10 +10
З 8
{16}
16 км 8/5 1800 m
[Ac]
+12.2 +7.8 74 +9 +9 1016.9 950.7
З 9
{17}
16 км 8/8 1140 м +10.6 +3.9 63 +7 +7 1018.2 951.9
З 8
{14}
16 км ясно +8.9 -1.7 47 +5 +5 1019.1 952.6
СЗ 6
{14}
16 км ясно +6.1 +1.1 70 +2 +2 1021.0 954.2 +6.1 +12.2
СЗ 9
{17}
16 км ясно +5.0 -0.6 67 -1 -1 1021.7 954.8
СЗ 8
{16}
16 км ясно +2.8 -3.3 64 -3 -3 1022.5 955.4
З 8
{14}
16 км ясно +2.2 -3.9 64 -4 -4 1022.7 955.8
З 5
{12}
16 км ясно +1.1 -4.4 67 -4 -4 1023.0 955.8
З 5
{10}
16 км ясно 0.0 -5.0 69 -6 -6 1023.3 956.1 +5.6
СЗ 4
{9}
16 км ясно -0.6 -5.0 72 -6 -6 1023.4 956.1
З 4
{10}
16 км ясно -1.1 -5.0 75 -7 -7 1023.5 956.4
З 6
{12}
16 км ясно -1.1 -5.6 71 -8 -8 1023.6 956.4
З 4
{8}
16 км ясно -1.7 -6.1 72 -7 -7 1023.6 956.4
СЗ 5
{9}
16 км ясно -2.2 -6.1 75 -9 -9 1023.6 956.1
нст 3 16 км ясно -2.8 -6.1 78 -8 -8 1024.0 956.4 -2.8 2.8
СЗ 4
{7}
16 км ясно -2.8 -6.7 74 -9 -9 1024.1 956.4
СЗ 5
{8}
16 км ясно -1.7 -6.1 72 -8 -8 1024.5 956.7
нст 3 16 км ясно -1.1 -6.7 66 -6 -5 1025.1 957.3
З 4 16 км ясно +1.0 -7.0 55 -4 -1 956.1
З 4
{8}
16 км ясно +0.6 -7.2 56 -4 -1 1023.0 955.1 -3.3 +1.1
н/о н/о
З 4
{8}
16 км ясно +2.2 -7.2 50 -2 0 1023.1 955.4
З 4 16 км ясно +1.7 -7.2 52 -3 -1 1022.4 954.8
нст 3 16 км ясно -0.6 -7.8 58 -5 -5 1022.7 954.8
Ю 3 16 км ясно -0.6 -8.3 56 -5 -5 1021.9 953.8
З 4 16 км ясно 0.0 -9.4 49 -5 -5 1023.5 955.4 -1.1 +2.2
ЮЗ 4 16 км ясно 0.0 -9.4 49 -5 -5 1023.1 955.1
З 4 16 км ясно -0.6 -9.4 51 -6 -6 1022.8 954.8
ЮЗ 3 16 км ясно 0.0 -10.0 47 -4 -4 1022.8 954.8
ЮЗ 4 16 км ясно +0.6 -10.0 45 -4 -4 1022.2 954.5
ЮЗ 4 16 км ясно +0.6 -9.4 47 -4 -4 1022.0 954.2
ЮЗ 4 16 км ясно 0.0 -8.3 54 -5 -5 1021.5 953.8 -0.6 +1.1
ЮЗ 3 16 км ясно -0.6 -7.8 58 -5 -5 1021.8 954.2
Ю 3 16 км ясно 0.0 -7.8 56 -4 -4 1021.8 954.2
Ю 3 16 км ясно -0.6 -6.1 66 -5 -5 1022.4 954.5
Ю 3 16 км ясно +0.6 -7.8 53 -3 -3 1022.5 954.8
Местоположение метеостанции Camp David: широта 39.6450 долгота -77.4680 высота над уровнем моря 555 м.
В архиве по умолчанию представлена погода в Кэмп-Дэвиде за последние 1-2 суток. Обновление информации о фактической погоде в базе происходит ежечасно! Архивные данные за месяц целиком и за предыдущие месяцы Вы можете получить, выбрав интересующий диапазон дат из раскрывающегося списка и нажав кнопку "Ввод!".
Внимание! Архив погоды МЕТАР в базе сайта по станциям, не включенным в климатический монитор, хранится не более 60 дней. Нет смысла пытаться выбрать более раннюю дату.
*Определитесь, кто Вы:
Внимание! Время в таблицах - местное (без учета летнего времени). Для получения всемирного времени необходимо вычесть поправку, которая равна -5 ч.
Смотрите также архив погоды в соседних городах и на ближайших метеорологических станциях:
Партнеры нашего сайта:      
Пояснения к столбцам:
  • Ветер - указаны скорость ветра в м/с - средняя за 10 мин, порывы в срок и между сроками (в фигурных скобках) и направление, откуда дует ветер: С - северный,
  • СВ - северо-восточный, В - восточный, ЮВ - юго-восточный, Ю - южный, ЮЗ - юго-западный, З - западный, СЗ - северо-западный.
  • Видимость - горизонтальная дальность видимости в метрах или километрах. При видимости от 1 до 10 км при отсутствии осадков обычно наблюдается дымка, при ухудшении видимости до 1 км и менее - туман. В сухую погоду видимость может ухудшаться дымом, пылью или мглою.
  • Явления - указаны атмосферные явления, наблюдавшиеся в срок или в последний час перед сроком; фигурными скобками обозначены явления, наблюдавшиеся между сроками (за 1-3 часа до срока); квадратными скобками обозначены град или гололедные отложения с указанием их диаметра в мм.
  • Облачность - указаны через наклонную черту общая и нижняя облачность в баллах и высота нижней границы облаков в метрах; квадратными скобками обозначены формы облаков: Ci - перистые, Cs - перисто-слоистые, Cc - перисто-кучевые, Ac - высококучевые, As - высокослоистые, Sc - слоисто-кучевые, Ns - слоисто-дождевые, Cu - кучевые, Cb - кучево-дождевые. Подробнее классификацию облаков см. в Атласе облаков (PDF).
  • T - Температура воздуха - температура, измеренная на высоте 2 м над землей.
  • Td - Температура точки росы - температура, при понижении до которой содержащийся в воздухе водяной пар достигнет насыщения.
  • f - Относительная влажность воздуха - влажноcть воздуха, измеренная на высоте 2 м над землей.
  • Te - Эффективная температура - температура, которую ощущает одетый по сезону человек в тени. Характеристика душности погоды. При расчете учитывается влияние влажности воздуха и скорости ветра на теплоощущения человека.
  • Tes - Эффективная температура на солнце - температура, которую ощущает человек, с поправкой на солнечный нагрев. Характеристика знойности погоды. Зависит от высоты солнца над горизонтом, облачности и скорости ветра. Ночью, в пасмурную погоду, а также при ветре 12 м/с и более поправка равна нулю.
  • P - Атмосферное давление - приведенное к уровню моря атмосферное давление.
  • Po - Атмосферное давление - измеренное на уровне метеостанции атмосферное давление.
  • Tmin - Минимальная температура - минимум температуры воздуха на высоте 2 м над землей.
  • Tmax - Максимальная температура - максимум температуры воздуха на высоте 2 м над землей.
  • R - Количество осадков - Количество выпавших осадков за период времени, мм. При наведении курсора мыши на число - период времени, за который выпало указанное количество осадков.
  • R24 - Количество осадков - Количество выпавших осадков за 24 часа, мм.
  • S - Снежный покров - Высота снежного покрова, см. При наведении курсора мыши на число - состояние снежного покрова и степень покрытия местности в баллах.